EW9154 Weather Reports


Display with metric or nautical units.
time (UTC)temp
F
wind
direction
speed
MPH
gust
MPH
rain 1hr
in
rain 24hr
in
rain mn
in
humidity
%
barometer
mb
20260901071639 69 235 0.0 0.0 0.00 0.00 0.00 86 1027.4
20260901071126 69 235 0.0 0.0 0.00 0.00 0.00 86 1027.5
20260901070623 69 235 0.0 0.0 0.00 0.00 0.00 86 1027.7
20260901070059 69 235 0.0 0.0 0.00 0.00 0.00 86 1027.7
20260901065535 69 235 0.0 0.0 0.00 0.00 0.00 86 1027.7
20260901065021 69 235 0.0 0.0 0.00 0.00 0.00 86 1027.7
20260901064524 69 235 0.0 0.0 0.00 0.00 0.00 86 1027.7
20260901064008 69 235 0.0 0.0 0.00 0.00 0.00 86 1027.9
20260901063504 69 235 0.0 0.0 0.00 0.00 0.00 86 1027.8
20260901063004 69 235 0.0 0.0 0.00 0.00 0.00 86 1027.9
20260901062726 69 235 0.0 0.0 0.00 0.00 0.00 86 1027.9
20260901062226 69 235 0.0 0.0 0.00 0.00 0.00 86 1027.9
20260901061725 70 235 0.0 0.0 0.00 0.00 0.00 86 1027.9
20260901060942 70 235 0.0 0.0 0.00 0.00 0.00 85 1027.9
20260901060413 70 235 0.0 0.0 0.00 0.00 0.00 85 1027.8
20260901055850 70 235 0.0 0.0 0.00 0.00 0.00 84 1027.8
20260901055331 71 235 0.0 0.0 0.00 0.00 0.00 84 1027.8
20260901054828 71 235 0.0 0.0 0.00 0.00 0.00 83 1027.7
20260901054318 71 234 0.0 0.0 0.00 0.00 0.00 83 1027.7
20260901053818 71 235 0.0 0.0 0.00 0.00 0.00 82 1027.5
20260901053320 71 235 0.0 0.0 0.00 0.00 0.00 82 1027.4
20260901053046 72 235 0.0 0.0 0.00 0.00 0.00 81 1027.5
20260901052314 72 235 0.0 0.0 0.00 0.00 0.00 80 1027.4
20260901051810 72 235 0.0 0.0 0.00 0.00 0.00 79 1027.4
20260901051245 72 235 0.0 0.0 0.00 0.00 0.00 78 1027.3
20260901050733 72 235 0.0 0.0 0.00 0.00 0.00 78 1027.3
20260901050229 73 235 0.0 0.0 0.00 0.00 0.00 77 1027.2
20260901045957 73 235 0.0 0.0 0.00 0.00 0.00 77 1027.0
20260901045207 73 235 0.0 0.0 0.00 0.00 0.00 77 1027.0
20260901044937 73 235 0.0 0.0 0.00 0.00 0.00 77 1026.9
20260901044210 73 235 0.0 0.0 0.00 0.00 0.00 76 1026.8
20260901043704 73 235 0.0 0.0 0.00 0.00 0.00 75 1026.7
20260901043154 73 235 0.0 0.0 0.00 0.00 0.00 75 1026.7
20260901042652 74 235 0.0 0.0 0.00 0.00 0.00 75 1026.7
20260901042155 74 235 0.0 0.0 0.00 0.00 0.00 75 1026.6
20260901041629 74 235 0.0 0.0 0.00 0.00 0.00 75 1026.6
20260901041122 74 235 0.0 0.0 0.00 0.00 0.00 75 1026.7
20260901040625 74 235 0.0 0.0 0.00 0.00 0.00 75 1026.8
20260901040058 74 235 0.0 0.0 0.00 0.00 0.00 75 1026.8
20260901035534 74 235 0.0 0.0 0.00 0.00 0.00 75 1026.9
20260901035023 74 235 0.0 0.0 0.00 0.00 0.00 75 1026.9
20260901034519 74 235 0.0 0.0 0.00 0.00 0.00 76 1027.0
20260901034017 74 235 0.0 0.0 0.00 0.00 0.00 76 1027.0
20260901033516 74 235 0.0 0.0 0.00 0.00 0.00 76 1027.0
20260901033010 74 235 0.0 0.0 0.00 0.00 0.00 76 1027.2
20260901032445 74 235 0.0 0.0 0.00 0.00 0.00 76 1027.0
20260901031942 74 235 0.0 0.0 0.00 0.00 0.00 76 1026.8
20260901031418 75 235 0.0 0.0 0.00 0.00 0.00 76 1026.8
20260901030852 75 235 0.0 0.0 0.00 0.00 0.00 76 1026.9
20260901030346 75 235 0.0 0.0 0.00 0.00 0.00 75 1026.8
20260901030323 75 235 0.0 0.0 0.00 0.00 0.00 75 1026.8
20260901025534 75 235 0.0 0.0 0.00 0.00 0.00 75 1026.8
20260901024759 75 234 0.0 0.0 0.00 0.00 0.00 74 1026.8
20260901024258 75 235 0.0 0.0 0.00 0.00 0.00 74 1026.6
20260901023753 75 234 0.0 0.0 0.00 0.00 0.00 74 1026.7
20260901023246 76 235 0.0 0.0 0.00 0.00 0.00 74 1026.7
20260901022720 76 235 0.0 0.0 0.00 0.00 0.00 73 1026.7
20260901022211 76 235 0.0 0.0 0.00 0.00 0.00 73 1026.6
20260901021708 76 238 0.0 0.0 0.00 0.00 0.00 73 1026.5
20260901021152 77 238 0.0 0.0 0.00 0.00 0.00 72 1026.6
20260901020650 77 238 0.0 0.0 0.00 0.00 0.00 71 1026.6
20260901020151 77 238 0.0 0.0 0.00 0.00 0.00 71 1026.5
20260901015649 77 238 0.0 0.0 0.00 0.00 0.00 70 1026.5
20260901015145 78 238 0.0 0.0 0.00 0.00 0.00 69 1026.4
20260901014644 78 238 0.0 0.0 0.00 0.00 0.00 68 1026.4
20260901014125 78 238 0.0 0.0 0.00 0.00 0.00 68 1026.4
20260901013621 78 238 0.0 0.0 0.00 0.00 0.00 67 1026.3
20260901013111 78 238 0.0 0.0 0.00 0.00 0.00 66 1026.2
20260901012607 79 238 0.0 0.0 0.00 0.00 0.00 66 1026.1
20260901012105 79 238 0.0 0.0 0.00 0.00 0.00 65 1026.1
20260901011537 79 238 0.0 0.0 0.00 0.00 0.00 65 1026.1
20260901011033 80 238 0.0 0.0 0.00 0.00 0.00 64 1026.0
20260901010507 80 238 0.0 0.0 0.00 0.00 0.00 64 1026.0
20260901010229 80 238 0.0 0.0 0.00 0.00 0.00 64 1026.0
20260901005432 81 238 0.0 0.0 0.00 0.00 0.00 63 1026.0
20260901005153 81 238 0.0 0.0 0.00 0.00 0.00 63 1026.1
20260901004417 81 238 0.0 0.0 0.00 0.00 0.00 63 1025.9
20260901003848 82 238 0.0 0.0 0.00 0.00 0.00 62 1025.9
20260901003613 82 236 0.0 0.0 0.00 0.00 0.00 61 1025.9
20260901002831 83 259 0.0 0.0 0.00 0.00 0.00 61 1025.8
20260901002327 83 259 0.0 0.0 0.00 0.00 0.00 60 1025.8
20260901001825 83 259 0.0 0.0 0.00 0.00 0.00 60 1025.8
20260901001300 84 259 0.0 0.0 0.00 0.00 0.00 59 1025.9
20260901001002 84 259 0.0 0.0 0.00 0.00 0.00 58 1025.9
20260901000445 85 259 0.0 0.0 0.00 0.00 0.00 58 1025.8
20260831235700 85 259 0.0 0.0 0.00 0.00 0.00 57 1025.7
20260831235156 86 260 0.0 0.0 0.00 0.00 0.00 56 1025.7
20260831234924 86 234 0.0 0.0 0.00 0.00 0.00 54 1025.7
20260831234356 87 234 0.0 0.0 0.00 0.00 0.00 52 1025.7
20260831233623 88 234 0.0 0.0 0.00 0.00 0.00 50 1025.7
20260831233111 88 234 0.0 0.0 0.00 0.00 0.00 48 1025.8
20260831232609 89 227 0.0 0.0 0.00 0.00 0.00 47 1025.7
20260831232108 89 91 0.0 0.0 0.00 0.00 0.00 45 1025.7
20260831231539 90 91 0.0 0.0 0.00 0.00 0.00 43 1025.7
20260831231035 91 91 0.0 0.0 0.00 0.00 0.00 44 1025.6
20260831230527 91 240 0.0 0.0 0.00 0.00 0.00 43 1025.6
20260831230025 92 240 0.0 0.0 0.00 0.00 0.00 42 1025.6
20260831225530 92 228 0.0 0.0 0.00 0.00 0.00 42 1025.6
20260831225001 93 228 0.0 0.0 0.00 0.00 0.00 41 1025.6
20260831224500 93 265 0.0 0.0 0.00 0.00 0.00 41 1025.5
20260831224202 94 283 0.0 0.0 0.00 0.00 0.00 40 1025.5
20260831223430 94 284 0.0 0.0 0.00 0.00 0.00 38 1025.6
20260831223137 95 284 0.0 0.0 0.00 0.00 0.00 37 1025.5
20260831222404 95 229 0.0 0.0 0.00 0.00 0.00 38 1025.4
20260831221901 96 279 0.0 0.0 0.00 0.00 0.00 40 1025.4
20260831221333 95 279 0.0 0.0 0.00 0.00 0.00 38 1025.4
20260831220832 95 280 0.0 0.0 0.00 0.00 0.00 37 1025.3
20260831220534 96 263 0.0 0.0 0.00 0.00 0.00 36 1025.2
20260831215802 96 223 0.0 0.0 0.00 0.00 0.00 40 1025.2
20260831215243 96 223 0.0 0.0 0.00 0.00 0.00 37 1025.3
20260831214715 96 221 0.0 0.0 0.00 0.00 0.00 37 1025.2
20260831214211 96 221 0.0 0.0 0.00 0.00 0.00 36 1025.2
20260831213709 97 278 0.0 0.0 0.00 0.00 0.00 36 1025.1
20260831213207 97 231 0.0 0.0 0.00 0.00 0.00 35 1025.1
20260831212649 97 231 0.0 1.0 0.00 0.00 0.00 36 1025.1
20260831212153 97 231 0.0 1.0 0.00 0.00 0.00 34 1025.1
20260831211630 97 287 0.0 0.0 0.00 0.00 0.00 36 1025.0
20260831211130 97 180 0.0 0.0 0.00 0.00 0.00 34 1025.0
20260831210904 97 178 0.0 0.0 0.00 0.00 0.00 34 1025.0
20260831210629 97 178 0.0 0.0 0.00 0.00 0.00 35 1025.0
20260831205856 97 229 0.0 0.0 0.00 0.00 0.00 38 1025.0
20260831205129 97 236 0.0 0.0 0.00 0.00 0.00 38 1025.0
20260831204602 97 237 0.0 0.0 0.00 0.00 0.00 41 1024.9
20260831204057 97 260 0.0 0.0 0.00 0.00 0.00 42 1024.9
20260831203530 96 260 0.0 0.0 0.00 0.00 0.00 42 1024.9
20260831203010 96 273 0.0 0.0 0.00 0.00 0.00 39 1025.0
20260831202507 97 271 0.0 0.0 0.00 0.00 0.00 41 1025.0
20260831202240 96 192 0.0 0.0 0.00 0.00 0.00 42 1025.0
20260831202110 97 254 0.0 0.0 0.00 0.00 0.00 41 1025.0
20260831201002 96 240 0.0 0.0 0.00 0.00 0.00 43 1025.0
20260831200437 96 223 0.0 0.0 0.00 0.00 0.00 42 1025.0
20260831195909 96 211 0.0 0.0 0.00 0.00 0.00 42 1025.0
20260831195408 96 211 0.0 0.0 0.00 0.00 0.00 42 1024.9
20260831194839 96 210 0.0 0.0 0.00 0.00 0.00 40 1024.9
20260831194338 96 257 0.0 0.0 0.00 0.00 0.00 41 1024.9
20260831193811 96 200 0.0 0.0 0.00 0.00 0.00 43 1024.9
20260831193308 96 221 0.0 0.0 0.00 0.00 0.00 42 1024.9
20260831193038 96 221 0.0 0.0 0.00 0.00 0.00 42 1024.9
20260831192306 96 221 0.0 0.0 0.00 0.00 0.00 42 1024.8
20260831191759 96 221 0.0 0.0 0.00 0.00 0.00 43 1024.8
20260831191304 95 205 0.0 0.0 0.00 0.00 0.00 43 1024.8
20260831190738 95 218 0.0 0.0 0.00 0.00 0.00 45 1024.8
20260831190214 95 209 0.0 0.0 0.00 0.00 0.00 46 1024.9
20260831185919 95 260 0.0 0.0 0.00 0.00 0.00 43 1024.9
20260831185147 94 259 0.0 0.0 0.00 0.00 0.00 47 1024.8
20260831184644 94 259 0.0 0.0 0.00 0.00 0.00 47 1024.8
20260831184144 94 269 0.0 0.0 0.00 0.00 0.00 48 1024.8
20260831183633 93 278 0.0 0.0 0.00 0.00 0.00 47 1024.6
20260831183131 93 249 0.0 0.0 0.00 0.00 0.00 48 1024.6
20260831182628 93 319 0.0 0.0 0.00 0.00 0.00 51 1024.8
20260831182113 92 320 0.0 0.0 0.00 0.00 0.00 54 1024.6
20260831181614 92 0 0.0 0.0 0.00 0.00 0.00 54 1024.6
20260831181050 92 9 0.0 0.0 0.00 0.00 0.00 55 1024.8
20260831180548 92 46 0.0 0.0 0.00 0.00 0.00 54 1024.8
20260831180047 91 80 0.0 0.0 0.00 0.00 0.00 55 1024.8
20260831175551 91 61 0.0 0.0 0.00 0.00 0.00 55 1024.9
20260831175028 90 59 0.0 0.0 0.00 0.00 0.00 58 1025.0
20260831174527 90 59 0.0 0.0 0.00 0.00 0.00 57 1025.1
20260831174005 89 229 0.0 0.0 0.00 0.00 0.00 61 1025.1
20260831173440 89 229 0.0 0.0 0.00 0.00 0.00 65 1025.1
20260831172939 88 229 0.0 0.0 0.00 0.00 0.00 66 1025.1
20260831172441 88 232 0.0 0.0 0.00 0.00 0.00 67 1025.2
20260831171919 88 217 0.0 0.0 0.00 0.00 0.00 68 1025.1
20260831171418 87 217 0.0 0.0 0.00 0.00 0.00 68 1025.1
20260831170854 87 211 0.0 0.0 0.00 0.00 0.00 69 1025.2
20260831170327 87 210 0.0 0.0 0.00 0.00 0.00 69 1025.2
20260831165812 87 262 0.0 0.0 0.00 0.00 0.00 68 1025.1
20260831165311 87 181 0.0 0.0 0.00 0.00 0.00 69 1025.1
20260831164812 87 133 0.0 0.0 0.00 0.00 0.00 69 1025.1
20260831164520 86 132 0.0 0.0 0.00 0.00 0.00 69 1025.0
20260831163724 86 143 0.0 0.0 0.00 0.00 0.00 69 1024.9
20260831163205 86 78 0.0 0.0 0.00 0.00 0.00 69 1024.9
20260831162639 86 248 0.0 0.0 0.00 0.00 0.00 70 1024.8
20260831162138 85 248 0.0 0.0 0.00 0.00 0.00 70 1024.8
20260831161618 85 236 0.0 0.0 0.00 0.00 0.00 72 1024.6
20260831161059 85 236 0.0 0.0 0.00 0.00 0.00 73 1024.4
20260831160538 84 236 0.0 0.0 0.00 0.00 0.00 74 1024.4
20260831160034 84 236 0.0 0.0 0.00 0.00 0.00 75 1024.5
20260831155536 84 236 0.0 0.0 0.00 0.00 0.00 75 1024.5
20260831155006 84 225 0.0 0.0 0.00 0.00 0.00 75 1024.6
20260831154505 84 252 0.0 0.0 0.00 0.00 0.00 76 1024.4
20260831154000 83 252 0.0 0.0 0.00 0.00 0.00 77 1024.5
20260831153450 83 252 0.0 0.0 0.00 0.00 0.00 79 1024.5
20260831153215 83 252 0.0 0.0 0.00 0.00 0.00 80 1024.5
20260831152441 82 252 0.0 0.0 0.00 0.00 0.00 81 1024.4
20260831151939 81 183 0.0 0.0 0.00 0.00 0.00 82 1024.4
20260831151440 81 183 0.0 0.0 0.00 0.00 0.00 82 1024.3
20260831150940 80 183 0.0 0.0 0.00 0.00 0.00 82 1024.4
20260831150417 80 224 0.0 0.0 0.00 0.00 0.00 84 1024.3
20260831145848 80 235 0.0 0.0 0.00 0.00 0.00 85 1024.3
20260831145349 79 235 0.0 0.0 0.00 0.00 0.00 85 1024.3
20260831144823 79 240 0.0 0.0 0.00 0.00 0.00 86 1024.1
20260831144301 78 263 0.0 0.0 0.00 0.00 0.00 88 1024.0
20260831143758 78 263 0.0 0.0 0.00 0.00 0.00 89 1023.9
20260831143533 77 257 0.0 0.0 0.00 0.00 0.00 89 1023.9
20260831143005 77 257 0.0 0.0 0.00 0.00 0.00 91 1023.7
20260831142504 76 257 0.0 0.0 0.00 0.00 0.00 91 1023.6
20260831141935 76 256 0.0 0.0 0.00 0.00 0.00 92 1023.6
20260831141202 76 256 0.0 0.0 0.00 0.00 0.00 92 1023.4
20260831140637 75 204 0.0 0.0 0.00 0.00 0.00 93 1023.5
20260831140133 75 254 0.0 0.0 0.00 0.00 0.00 93 1023.5
20260831135604 74 257 0.0 0.0 0.00 0.00 0.00 94 1023.4
20260831135103 74 257 0.0 0.0 0.00 0.00 0.00 94 1023.3
20260831134542 74 257 0.0 0.0 0.00 0.00 0.00 94 1023.3
20260831134041 74 234 0.0 0.0 0.00 0.00 0.00 94 1023.2
20260831133540 74 225 0.0 0.0 0.00 0.00 0.00 94 1023.2
20260831133311 73 225 0.0 0.0 0.00 0.00 0.00 94 1023.1
20260831132517 73 243 0.0 0.0 0.00 0.00 0.00 94 1022.9
20260831131948 73 242 0.0 0.0 0.00 0.00 0.00 94 1023.0
20260831131447 73 228 0.0 0.0 0.00 0.00 0.00 94 1023.0
20260831131153 73 233 0.0 2.0 0.00 0.00 0.00 94 1022.9
20260831130407 73 211 0.0 2.0 0.00 0.00 0.00 95 1022.8
20260831125906 73 219 0.0 0.0 0.00 0.00 0.00 95 1022.8
20260831125402 72 215 0.0 1.0 0.00 0.00 0.00 95 1022.7
20260831124901 72 197 0.0 1.0 0.00 0.00 0.00 95 1022.6
20260831124335 72 203 0.0 0.0 0.00 0.00 0.00 95 1022.5
20260831123804 72 207 0.0 0.0 0.00 0.00 0.00 95 1022.5
20260831123303 72 205 0.0 0.0 0.00 0.00 0.00 95 1022.6
20260831122742 72 213 0.0 2.0 0.00 0.00 0.00 95 1022.7
20260831122216 72 234 0.0 2.0 0.00 0.00 0.00 95 1022.5
20260831121715 72 215 0.0 2.0 0.00 0.00 0.00 95 1022.5
20260831121210 72 209 0.0 2.0 0.00 0.00 0.00 95 1022.2
20260831120645 72 217 0.0 1.0 0.00 0.00 0.00 95 1022.2
20260831120116 72 223 0.0 0.0 0.00 0.00 0.00 95 1022.4
20260831115609 72 202 0.0 0.0 0.00 0.00 0.00 94 1022.1
20260831115040 72 236 0.0 1.0 0.00 0.00 0.00 94 1022.0
20260831114536 72 238 0.0 1.0 0.00 0.00 0.00 94 1021.8
20260831114030 72 221 0.0 1.0 0.00 0.00 0.00 94 1021.8
20260831113529 72 221 0.0 2.0 0.00 0.00 0.00 94 1021.7
20260831113015 72 236 0.0 2.0 0.00 0.00 0.00 94 1021.8
20260831112515 72 229 0.0 2.0 0.00 0.00 0.00 94 1021.7
20260831111946 72 206 0.0 2.0 0.00 0.00 0.00 94 1021.6
20260831111421 73 238 0.0 1.0 0.00 0.00 0.00 94 1021.7
20260831110854 73 209 0.0 1.0 0.00 0.00 0.00 94 1021.5
20260831110354 73 213 0.0 4.0 0.00 0.00 0.00 94 1021.4
20260831105849 73 225 0.0 4.0 0.00 0.00 0.00 94 1021.3
20260831105625 73 208 0.0 4.0 0.00 0.00 0.00 94 1021.2
20260831104824 73 227 0.0 4.0 0.00 0.00 0.00 94 1021.2
20260831104323 73 223 0.0 2.0 0.00 0.00 0.00 94 1021.1
20260831104033 73 216 0.0 2.0 0.00 0.00 0.00 94 1021.2
20260831103300 73 225 0.0 5.0 0.00 0.00 0.00 94 1021.3
20260831102759 73 228 0.0 5.0 0.00 0.00 0.00 94 1021.3
20260831102305 73 207 1.0 8.0 0.00 0.00 0.00 94 1021.3
20260831102021 73 239 1.0 8.0 0.00 0.00 0.00 94 1021.3
20260831101252 73 240 0.0 6.0 0.00 0.00 0.00 94 1021.3
20260831100726 73 210 0.0 6.0 0.00 0.00 0.00 94 1021.2
20260831100158 73 228 0.0 5.0 0.00 0.00 0.00 94 1021.2
20260831095658 73 203 0.0 5.0 0.00 0.00 0.00 94 1021.2
20260831095146 73 227 0.0 3.0 0.00 0.00 0.00 94 1021.2
20260831094618 73 190 0.0 3.0 0.00 0.00 0.00 94 1021.0
20260831094114 73 215 0.0 3.0 0.00 0.00 0.00 94 1021.1
20260831093825 73 223 0.0 7.0 0.00 0.00 0.00 94 1021.2
20260831093020 73 229 0.0 7.0 0.00 0.00 0.00 94 1021.3
20260831092735 73 226 0.0 9.0 0.00 0.00 0.00 93 1021.2
20260831092007 73 216 0.0 9.0 0.00 0.00 0.00 93 1021.2
20260831091944 73 211 0.0 5.0 0.00 0.00 0.00 93 1021.2
20260831091438 73 214 0.0 5.0 0.00 0.00 0.00 93 1021.1
20260831090428 73 222 0.0 5.0 0.00 0.00 0.00 93 1021.1
20260831085928 73 213 0.0 4.0 0.00 0.00 0.00 93 1021.1
20260831085410 73 214 0.0 4.0 0.00 0.00 0.00 93 1021.0
20260831085142 73 206 0.0 2.0 0.00 0.00 0.00 93 1021.1
20260831084410 73 225 0.0 10.0 0.00 0.00 0.00 93 1021.1
20260831083900 73 214 0.0 10.0 0.00 0.00 0.00 92 1021.1
20260831083633 73 213 0.0 2.0 0.00 0.00 0.00 92 1021.1
20260831082837 73 226 0.0 7.0 0.00 0.00 0.00 92 1021.0
20260831082327 73 227 0.0 7.0 0.00 0.00 0.00 92 1021.0
20260831082059 73 242 0.0 7.0 0.00 0.00 0.00 92 1020.9
20260831081305 73 189 0.0 7.0 0.00 0.00 0.00 92 1020.8
20260831080805 74 229 0.0 6.0 0.00 0.00 0.00 92 1020.8
20260831080536 74 234 0.0 4.0 0.00 0.00 0.00 92 1020.9
20260831075805 74 246 0.0 3.0 0.00 0.00 0.00 92 1020.9
20260831075252 74 215 0.0 8.0 0.00 0.00 0.00 92 1020.9
20260831074727 74 235 0.0 7.0 0.00 0.00 0.00 92 1020.9
20260831074228 74 226 0.0 4.0 0.00 0.00 0.00 92 1020.9
20260831073727 73 234 0.0 4.0 0.00 0.00 0.00 91 1020.9
20260831073158 73 186 0.0 8.0 0.00 0.00 0.00 91 1020.8
20260831072634 73 182 0.0 8.0 0.00 0.00 0.00 91 1020.9